Akron, OH

12:55 AM EST on December 06, 2019 (GMT -0500)
Akron Fulton International

Weather History for KAKR - November, 2019

Change the Weather History Date:

Wednesday, November 13, 2019

  Actual Average (WUND) Record (WUND)
Temperature  
Mean Temperature 20 °F -  
Max Temperature 28 °F - - (-1)
Min Temperature 12 °F - - (-1)
Degree Days  
Heating Degree Days 45    
Moisture  
Dew Point 10 °F    
Average Humidity 60    
Maximum Humidity 80    
Minimum Humidity 49    
Precipitation  
Precipitation 0.00 in - - ()
Sea Level Pressure  
Sea Level Pressure 30.35 in    
Wind  
Wind Speed 7 mph (SSW)    
Max Wind Speed 13 mph    
Max Gust Speed -    
Visibility 10 miles    
Events      
Averages and records for this station are not official NWS values.
T = Trace of Precipitation, MM = Missing Value Source: NWS Daily Summary

Daily Weather History Graph

Daily Weather History Graph

Search for Another Location

Airport or City:

Astronomy

Nov. 13, 2019 Rise Set
Actual Time 7:10 AM EST 5:08 PM EST
Civil Twilight 6:41 AM EST 5:38 PM EST
Nautical Twilight 6:08 AM EST 6:11 PM EST
Astronomical Twilight 5:35 AM EST 6:43 PM EST
Moon 6:11 PM EST (11/13) 8:02 AM EST (11/13)
Length of Visible Light 10h 56m
Length of Day
9h 58m
Full, 99% of the Moon is Illuminated
Nov 13
Full
Nov 19
Last Quarter
Nov 26
New
Dec 4
First Quarter
Dec 12
Full

Hourly Weather History & Observations

Time (EST) Temp. Windchill Dew Point Humidity Pressure Visibility Wind Dir Wind Speed Gust Speed Precip Events Conditions
12:54 AM 18.0 °F 6.1 °F 9.0 °F 68% 30.37 in 10.0 mi West 10.4 mph - N/A   Clear
1:54 AM 19.0 °F 8.2 °F 9.0 °F 65% 30.37 in 10.0 mi West 9.2 mph - N/A   Mostly Cloudy
2:54 AM 19.0 °F 10.0 °F 9.0 °F 65% 30.38 in 10.0 mi West 6.9 mph - N/A   Mostly Cloudy
3:54 AM 19.0 °F 7.5 °F 9.0 °F 65% 30.39 in 10.0 mi WNW 10.4 mph - N/A   Overcast
4:54 AM 15.1 °F 6.4 °F 7.0 °F 70% 30.41 in 10.0 mi WSW 5.8 mph - N/A   Mostly Cloudy
5:54 AM 15.1 °F - 7.0 °F 70% 30.41 in 10.0 mi Calm Calm - N/A   Clear
6:54 AM 12.0 °F 5.9 °F 6.1 °F 77% 30.42 in 10.0 mi WSW 3.5 mph - N/A   Clear
7:54 AM 14.0 °F - 9.0 °F 80% 30.42 in 10.0 mi Calm Calm - N/A   Clear
8:54 AM 18.0 °F - 10.0 °F 71% 30.43 in 10.0 mi Calm Calm - N/A   Clear
9:54 AM 21.0 °F 16.2 °F 10.0 °F 63% 30.44 in 10.0 mi WSW 3.5 mph - N/A   Clear
10:54 AM 23.0 °F 13.9 °F 9.0 °F 55% 30.43 in 10.0 mi South 8.1 mph - N/A   Clear
11:54 AM 25.0 °F 19.3 °F 10.0 °F 53% 30.41 in 10.0 mi SSW 4.6 mph - N/A   Partly Cloudy
12:54 PM 26.1 °F 19.4 °F 10.0 °F 51% 30.38 in 10.0 mi South 5.8 mph - N/A   Clear
1:54 PM 27.0 °F 19.5 °F 10.0 °F 49% 30.36 in 10.0 mi South 6.9 mph - N/A   Clear
2:54 PM 27.0 °F 18.7 °F 10.0 °F 49% 30.35 in 10.0 mi SSW 8.1 mph - N/A   Clear
3:54 PM 27.0 °F 19.5 °F 10.9 °F 51% 30.33 in 10.0 mi South 6.9 mph - N/A   Clear
4:54 PM 27.0 °F 20.5 °F 10.9 °F 51% 30.30 in 10.0 mi South 5.8 mph - N/A   Clear
5:54 PM 27.0 °F 18.7 °F 10.9 °F 51% 30.28 in 10.0 mi SSE 8.1 mph - N/A   Clear
6:54 PM 27.0 °F 18.0 °F 12.9 °F 56% 30.28 in 10.0 mi South 9.2 mph - N/A   Clear
7:54 PM 27.0 °F 17.3 °F 12.9 °F 56% 30.26 in 10.0 mi South 10.4 mph - N/A   Clear
8:54 PM 27.0 °F 19.5 °F 12.9 °F 56% 30.25 in 10.0 mi South 6.9 mph - N/A   Clear
9:54 PM 27.0 °F 16.7 °F 14.0 °F 58% 30.22 in 10.0 mi South 11.5 mph - N/A   Clear
10:54 PM 28.0 °F 17.5 °F 15.1 °F 58% 30.21 in 10.0 mi South 12.7 mph - N/A   Scattered Clouds
11:54 PM 28.0 °F 18.6 °F 16.0 °F 61% 30.20 in 10.0 mi SSW 10.4 mph - N/A   Mostly Cloudy